DAL428 KLAX-PHLI

Flight info

Callsign DAL428
Flight time N/A
Altitude 30000
Route SUMMR2 FICKY WEDES 27N130W 25N140W 21N150W FITES SWEEP V11 OGG VIRAY ZIKAB NAGAI LYDAT UWEHE LIH
Aircraft A21N/M-SDE2E3FGHIRWXY/LB1

Departure

Time 2026-04-24 23:28
Airport Los Angeles International Airport (KLAX)

Arrival

Time N/A
Airport Lihue Airport (PHLI)
Time Latitude Longitude Altitude Speed Heading
2026-04-24 22:27 33.94737 -118.40387 126 ft 0 kts 207°
2026-04-24 23:15 33.94741 -118.40384 126 ft 2 kts 207°
2026-04-24 23:15 33.94759 -118.40373 120 ft 3 kts 207°
2026-04-24 23:16 33.94769 -118.40367 123 ft 2 kts 206°
2026-04-24 23:16 33.94783 -118.40358 123 ft 3 kts 165°
2026-04-24 23:16 33.94796 -118.40365 122 ft 3 kts 110°
2026-04-24 23:16 33.94802 -118.40387 121 ft 3 kts 91°
2026-04-24 23:17 33.94802 -118.40406 120 ft 1 kts 82°
2026-04-24 23:17 33.94801 -118.40412 122 ft 0 kts 82°
2026-04-24 23:22 33.94803 -118.40400 122 ft 3 kts 82°
2026-04-24 23:23 33.94806 -118.40376 122 ft 3 kts 81°
2026-04-24 23:23 33.94811 -118.40348 126 ft 4 kts 76°
2026-04-24 23:23 33.94822 -118.40319 123 ft 4 kts 62°
2026-04-24 23:23 33.94843 -118.40299 125 ft 4 kts 28°
2026-04-24 23:24 33.94870 -118.40292 124 ft 4 kts 12°
2026-04-24 23:24 33.94895 -118.40275 122 ft 4 kts 44°
2026-04-24 23:24 33.94901 -118.40249 126 ft 3 kts 77°
2026-04-24 23:24 33.94902 -118.40236 125 ft 1 kts 82°
2026-04-24 23:25 33.94903 -118.40226 123 ft 3 kts 82°
2026-04-24 23:25 33.94905 -118.40215 121 ft 2 kts 78°
2026-04-24 23:25 33.94906 -118.40210 122 ft 0 kts 76°
2026-04-24 23:25 33.94917 -118.40185 126 ft 10 kts 58°
2026-04-24 23:26 33.94931 -118.40172 126 ft 0 kts 33°
2026-04-24 23:27 33.94957 -118.40172 123 ft 18 kts 357°
2026-04-24 23:27 33.95010 -118.40282 125 ft 27 kts 262°
2026-04-24 23:27 33.94953 -118.40785 123 ft 94 kts 264°
2026-04-24 23:27 33.94849 -118.41825 124 ft 157 kts 263°
2026-04-24 23:28 33.94673 -118.43334 448 ft 198 kts 260°
2026-04-24 23:28 33.94347 -118.45092 988 ft 229 kts 258°
2026-04-24 23:28 33.94261 -118.46987 2210 ft 226 kts 271°
2026-04-24 23:28 33.94315 -118.48946 3123 ft 241 kts 268°
2026-04-24 23:29 33.94207 -118.50993 3960 ft 255 kts 265°
2026-04-24 23:29 33.94040 -118.53283 4477 ft 289 kts 265°
2026-04-24 23:29 33.93843 -118.55823 4749 ft 330 kts 264°
2026-04-24 23:29 33.93609 -118.58801 4862 ft 376 kts 264°
2026-04-24 23:30 33.93341 -118.62121 4910 ft 420 kts 265°
2026-04-24 23:30 33.93058 -118.65793 4925 ft 462 kts 265°
2026-04-24 23:30 33.92753 -118.69744 4930 ft 499 kts 265°
2026-04-24 23:30 33.92418 -118.74058 4933 ft 533 kts 265°
2026-04-24 23:31 33.92062 -118.78610 4931 ft 554 kts 265°
2026-04-24 23:31 33.91777 -118.83251 5063 ft 555 kts 268°
2026-04-24 23:31 33.91860 -118.87908 5237 ft 555 kts 271°
2026-04-24 23:31 33.91975 -118.92561 5418 ft 556 kts 272°
2026-04-24 23:32 33.92102 -118.97220 5446 ft 556 kts 272°
2026-04-24 23:32 33.91762 -119.01847 5413 ft 557 kts 259°
2026-04-24 23:32 33.90610 -119.06288 5391 ft 557 kts 248°
2026-04-24 23:32 33.89016 -119.10548 5399 ft 557 kts 247°
2026-04-24 23:33 33.87487 -119.14753 5389 ft 557 kts 246°
2026-04-24 23:33 33.85950 -119.18967 5394 ft 557 kts 246°
2026-04-24 23:33 33.84420 -119.23158 7009 ft 526 kts 247°
2026-04-24 23:33 33.83009 -119.27019 10268 ft 486 kts 247°
2026-04-24 23:34 33.81677 -119.30643 12892 ft 460 kts 246°
2026-04-24 23:34 33.79980 -119.33804 15054 ft 443 kts 232°
2026-04-24 23:34 33.77913 -119.36456 16728 ft 427 kts 228°
2026-04-24 23:34 33.75785 -119.38859 18239 ft 414 kts 224°
2026-04-24 23:35 33.73579 -119.41005 19453 ft 401 kts 223°
2026-04-24 23:35 33.71403 -119.43071 20321 ft 400 kts 223°
2026-04-24 23:35 33.69201 -119.45140 20881 ft 404 kts 222°
2026-04-24 23:35 33.66974 -119.47227 21472 ft 407 kts 222°
2026-04-24 23:36 33.64730 -119.49328 22040 ft 411 kts 222°
2026-04-24 23:36 33.62456 -119.51456 22549 ft 419 kts 222°
2026-04-24 23:36 33.60114 -119.53648 22794 ft 435 kts 222°
2026-04-24 23:36 33.57678 -119.55925 22895 ft 453 kts 222°
2026-04-24 23:37 33.55139 -119.58294 22937 ft 472 kts 222°
2026-04-24 23:37 33.52525 -119.60732 22951 ft 491 kts 221°
2026-04-24 23:37 33.47109 -119.65777 22957 ft 494 kts 221°
2026-04-24 23:38 33.44393 -119.68305 22963 ft 494 kts 221°
2026-04-24 23:38 33.41684 -119.70825 22960 ft 493 kts 221°
2026-04-24 23:38 33.38994 -119.73324 23726 ft 483 kts 221°
2026-04-24 23:38 33.36375 -119.75755 25123 ft 468 kts 222°
2026-04-24 23:39 33.33842 -119.78106 26482 ft 454 kts 222°
2026-04-24 23:39 33.31379 -119.80391 27771 ft 442 kts 222°
2026-04-24 23:39 33.29004 -119.82591 29002 ft 431 kts 222°
2026-04-24 23:39 33.26661 -119.84761 30163 ft 421 kts 223°
2026-04-24 23:40 33.24368 -119.86884 31044 ft 413 kts 223°
2026-04-24 23:40 33.22085 -119.88998 31440 ft 418 kts 223°
2026-04-24 23:40 33.19774 -119.91134 31749 ft 424 kts 223°
2026-04-24 23:40 33.17415 -119.93313 31895 ft 434 kts 223°
2026-04-24 23:41 33.14995 -119.95544 31946 ft 446 kts 223°
2026-04-24 23:41 33.12527 -119.97817 31960 ft 449 kts 223°
2026-04-24 23:41 33.07579 -120.02373 31980 ft 449 kts 223°
2026-04-24 23:42 33.02632 -120.06924 31988 ft 449 kts 223°
2026-04-24 23:42 32.97683 -120.11468 31994 ft 449 kts 223°
2026-04-24 23:43 32.92739 -120.16002 31997 ft 448 kts 223°
2026-04-24 23:43 32.87798 -120.20527 31998 ft 448 kts 223°
2026-04-24 23:44 32.82863 -120.25039 32002 ft 447 kts 223°
2026-04-24 23:44 32.77951 -120.29524 32001 ft 447 kts 223°
2026-04-24 23:45 32.73016 -120.34023 32004 ft 446 kts 223°
2026-04-24 23:45 32.68087 -120.38511 32005 ft 446 kts 223°
2026-04-24 23:46 32.63159 -120.42990 32009 ft 446 kts 223°
2026-04-24 23:46 32.58236 -120.47461 32008 ft 445 kts 223°
2026-04-24 23:47 32.53319 -120.51924 32016 ft 445 kts 223°
2026-04-24 23:47 32.48437 -120.56348 32016 ft 445 kts 223°
2026-04-24 23:48 32.43520 -120.60796 32013 ft 444 kts 223°
2026-04-24 23:48 32.38601 -120.65242 32016 ft 444 kts 223°
2026-04-24 23:49 32.33687 -120.69676 32019 ft 444 kts 223°
2026-04-24 23:49 32.28803 -120.74077 32027 ft 444 kts 223°
2026-04-24 23:50 32.23887 -120.78501 32026 ft 444 kts 223°
2026-04-24 23:50 32.18975 -120.82915 32026 ft 443 kts 223°
2026-04-24 23:51 32.14055 -120.87330 32028 ft 443 kts 223°
2026-04-24 23:51 32.09144 -120.91731 32028 ft 443 kts 223°
2026-04-24 23:52 32.04235 -120.96123 32033 ft 443 kts 223°
2026-04-24 23:52 31.99341 -121.00497 32033 ft 441 kts 223°
2026-04-24 23:53 31.94487 -121.04829 32034 ft 440 kts 223°
2026-04-24 23:53 31.89605 -121.09180 32036 ft 440 kts 223°
2026-04-24 23:54 31.84717 -121.13530 32037 ft 440 kts 223°
2026-04-24 23:54 31.79831 -121.17872 32039 ft 440 kts 223°
2026-04-24 23:55 31.74942 -121.22212 32039 ft 440 kts 223°
2026-04-24 23:55 31.70061 -121.26538 32041 ft 440 kts 223°
2026-04-24 23:56 31.66002 -121.30131 32044 ft 439 kts 223°
2026-04-24 23:56 31.61116 -121.34451 32041 ft 439 kts 223°
2026-04-24 23:57 31.56706 -121.39249 32077 ft 426 kts 242°
2026-04-24 23:57 31.55589 -121.42440 32006 ft 425 kts 258°
2026-04-24 23:57 31.55402 -121.45889 32000 ft 427 kts 270°
2026-04-24 23:58 31.55818 -121.52860 31987 ft 428 kts 270°
2026-04-24 23:58 31.56030 -121.59826 31979 ft 427 kts 268°
2026-04-24 23:59 31.55969 -121.66793 31970 ft 427 kts 266°
2026-04-24 23:59 31.55834 -121.73756 31965 ft 427 kts 266°
2026-04-25 00:00 31.55337 -121.80687 31962 ft 426 kts 262°
2026-04-25 00:00 31.54653 -121.87593 31969 ft 426 kts 262°
2026-04-25 00:01 31.53960 -121.94450 31969 ft 426 kts 262°
2026-04-25 00:01 31.53261 -122.01348 31970 ft 426 kts 262°
2026-04-25 00:02 31.52559 -122.08255 31967 ft 426 kts 262°
2026-04-25 00:02 31.51854 -122.15150 31969 ft 426 kts 262°
2026-04-25 00:03 31.51146 -122.22041 31975 ft 426 kts 262°
2026-04-25 00:03 31.50433 -122.28937 31981 ft 426 kts 262°
2026-04-25 00:04 31.49717 -122.35832 31978 ft 426 kts 262°
2026-04-25 00:04 31.49004 -122.42677 31983 ft 426 kts 261°
2026-04-25 00:05 31.48279 -122.49573 31983 ft 426 kts 261°
2026-04-25 00:05 31.47412 -122.56441 31994 ft 425 kts 251°
2026-04-25 00:06 31.46081 -122.59536 32039 ft 428 kts 235°
2026-04-25 00:06 31.43922 -122.61974 32075 ft 439 kts 219°
2026-04-25 00:06 31.41138 -122.63555 32110 ft 452 kts 206°
2026-04-25 00:06 31.38138 -122.64707 32115 ft 454 kts 205°
2026-04-25 00:07 31.32249 -122.67168 32106 ft 450 kts 209°
2026-04-25 00:07 31.26572 -122.70140 32123 ft 446 kts 212°
2026-04-25 00:08 31.21001 -122.73326 32091 ft 443 kts 215°
2026-04-25 00:08 31.15743 -122.77033 32119 ft 440 kts 218°
2026-04-25 00:09 31.10548 -122.80812 32130 ft 439 kts 218°
2026-04-25 00:09 31.05363 -122.84582 32130 ft 439 kts 218°
2026-04-25 00:10 31.00169 -122.88352 32091 ft 439 kts 218°
2026-04-25 00:10 30.94981 -122.92112 32114 ft 439 kts 217°
2026-04-25 00:11 30.89837 -122.95835 32122 ft 438 kts 217°
2026-04-25 00:11 30.84649 -122.99585 32132 ft 438 kts 217°
2026-04-25 00:12 30.79465 -123.03327 32115 ft 438 kts 217°
2026-04-25 00:12 30.74284 -123.07061 32130 ft 438 kts 217°
2026-04-25 00:13 30.73442 -123.07669 32130 ft 438 kts 217°
2026-04-25 00:14 30.73137 -123.07888 32132 ft 438 kts 217°
2026-04-25 00:14 30.70753 -123.10031 32113 ft 430 kts 230°
2026-04-25 00:14 30.69102 -123.12881 32049 ft 424 kts 248°
2026-04-25 00:15 30.68385 -123.16192 32155 ft 427 kts 264°
2026-04-25 00:15 30.68657 -123.19645 32250 ft 437 kts 281°
2026-04-25 00:15 30.70881 -123.26277 32383 ft 433 kts 274°
2026-04-25 00:16 30.70921 -123.29715 32477 ft 423 kts 258°
2026-04-25 00:16 30.70368 -123.33036 32459 ft 424 kts 258°
2026-04-25 00:16 30.70055 -123.36041 32478 ft 425 kts 263°
2026-04-25 00:18 30.69922 -123.38766 32480 ft 426 kts 264°
2026-04-25 00:18 30.69377 -123.45609 32489 ft 425 kts 261°
2026-04-25 00:19 30.68712 -123.52431 32492 ft 425 kts 261°
2026-04-25 00:19 30.68036 -123.59248 32498 ft 425 kts 261°
2026-04-25 00:20 30.67357 -123.66074 32502 ft 425 kts 261°
2026-04-25 00:20 30.66680 -123.72851 32508 ft 425 kts 261°
2026-04-25 00:21 30.65995 -123.79677 32516 ft 425 kts 261°
2026-04-25 00:21 30.65307 -123.86501 32519 ft 425 kts 261°
2026-04-25 00:22 30.64614 -123.93324 32527 ft 425 kts 261°
2026-04-25 00:22 30.63919 -124.00149 32534 ft 425 kts 261°
2026-04-25 00:23 30.63108 -124.06945 32539 ft 426 kts 262°
2026-04-25 00:23 30.62513 -124.13790 32555 ft 426 kts 261°
2026-04-25 00:24 30.61817 -124.20582 32560 ft 426 kts 260°
2026-04-25 00:24 30.61104 -124.27414 32565 ft 426 kts 260°
2026-04-25 00:25 30.60389 -124.34236 32572 ft 426 kts 260°
2026-04-25 00:25 30.59670 -124.41066 32576 ft 426 kts 260°
2026-04-25 00:26 30.58953 -124.47845 32583 ft 426 kts 260°
2026-04-25 00:26 30.58185 -124.54660 32589 ft 425 kts 258°
2026-04-25 00:27 30.57491 -124.61486 32607 ft 426 kts 260°
2026-04-25 00:27 30.56771 -124.68306 32614 ft 426 kts 260°
2026-04-25 00:28 30.56035 -124.75124 32620 ft 426 kts 260°
2026-04-25 00:28 30.55293 -124.81951 32624 ft 426 kts 260°
2026-04-25 00:29 30.54554 -124.88730 32635 ft 426 kts 260°
2026-04-25 00:29 30.53807 -124.95552 32643 ft 426 kts 259°
2026-04-25 00:30 30.53057 -125.02396 32318 ft 430 kts 259°
2026-04-25 00:30 30.52675 -125.05847 32039 ft 430 kts 260°
2026-04-25 00:30 30.52292 -125.09281 32039 ft 429 kts 259°
2026-04-25 00:31 30.51530 -125.16145 32031 ft 429 kts 259°
2026-04-25 00:31 30.50767 -125.22982 32022 ft 429 kts 259°
2026-04-25 00:32 30.49995 -125.29859 32016 ft 429 kts 259°
2026-04-25 00:32 30.49225 -125.36694 32011 ft 429 kts 259°
2026-04-25 00:33 30.48421 -125.43555 32014 ft 429 kts 257°
2026-04-25 00:33 30.47651 -125.50446 32016 ft 430 kts 259°
2026-04-25 00:34 30.46888 -125.57266 32032 ft 430 kts 259°
2026-04-25 00:34 30.46094 -125.64189 32032 ft 430 kts 259°
2026-04-25 00:35 30.45721 -125.71059 32052 ft 439 kts 275°
2026-04-25 00:35 30.46715 -125.74458 32093 ft 456 kts 291°
2026-04-25 00:35 30.48626 -125.77465 32130 ft 476 kts 307°
2026-04-25 00:36 30.51318 -125.79824 32168 ft 497 kts 322°
2026-04-25 00:36 30.54594 -125.81358 32043 ft 517 kts 336°
2026-04-25 00:36 30.57982 -125.82643 32048 ft 504 kts 325°
2026-04-25 00:36 30.60882 -125.84766 32071 ft 483 kts 309°
2026-04-25 00:37 30.63057 -125.87606 32101 ft 463 kts 294°
2026-04-25 00:37 30.64367 -125.90923 32130 ft 445 kts 278°
2026-04-25 00:37 30.64717 -125.94427 32171 ft 433 kts 262°
2026-04-25 00:37 30.64107 -125.97806 32073 ft 427 kts 246°
2026-04-25 00:38 30.61008 -126.03684 32086 ft 427 kts 236°
2026-04-25 00:38 30.57529 -126.09285 32063 ft 427 kts 234°
2026-04-25 00:39 30.54051 -126.14820 32044 ft 427 kts 235°
2026-04-25 00:39 30.50587 -126.20433 32030 ft 427 kts 236°
2026-04-25 00:40 30.47434 -126.26260 32026 ft 426 kts 240°
2026-04-25 00:40 30.44659 -126.32331 32022 ft 426 kts 243°
2026-04-25 00:41 30.42631 -126.37404 32017 ft 427 kts 245°
2026-04-25 00:41 30.40355 -126.43764 32031 ft 427 kts 247°
2026-04-25 00:42 30.38264 -126.50203 32031 ft 427 kts 248°
2026-04-25 00:42 30.36257 -126.56702 31366 ft 433 kts 248°
2026-04-25 00:43 30.35613 -126.58711 30703 ft 438 kts 248°
2026-04-25 00:43 30.34559 -126.61941 29520 ft 444 kts 248°
2026-04-25 00:43 30.33455 -126.65306 28255 ft 451 kts 249°
2026-04-25 00:43 30.32497 -126.68810 27064 ft 459 kts 252°
2026-04-25 00:44 30.31611 -126.72339 27174 ft 456 kts 252°
2026-04-25 00:44 30.30747 -126.75872 27177 ft 456 kts 253°
2026-04-25 00:44 30.29886 -126.79410 27111 ft 457 kts 253°
2026-04-25 00:44 30.29022 -126.82961 26853 ft 458 kts 253°
2026-04-25 00:45 30.28156 -126.86510 26848 ft 458 kts 253°
2026-04-25 00:45 30.27299 -126.90015 26857 ft 458 kts 253°
2026-04-25 00:45 30.26430 -126.93560 26771 ft 459 kts 253°
2026-04-25 00:45 30.25552 -126.97132 26182 ft 463 kts 252°
2026-04-25 00:46 30.24669 -127.00705 26209 ft 462 kts 252°
2026-04-25 00:46 30.23796 -127.04287 26206 ft 462 kts 253°
2026-04-25 00:46 30.22032 -127.11438 26208 ft 463 kts 252°
2026-04-25 00:47 30.21150 -127.15011 26210 ft 462 kts 252°
2026-04-25 00:47 30.20266 -127.18586 26087 ft 464 kts 252°
2026-04-25 00:47 30.19375 -127.22179 25994 ft 464 kts 252°
2026-04-25 00:47 30.18481 -127.25767 25991 ft 464 kts 252°
2026-04-25 00:48 30.17595 -127.29356 25989 ft 464 kts 254°